User: anonymous   Login
Location: Rounton
(54.4000°N, 1.3500°W)
Time: 07:38:22
(UTC+01:00)
Language:

Transit 2A Rocket - Orbit

View from above orbital plane
View from above orbital plane
View from above satellite
View from above satellite

Ground track
Ground track

The orbit data is extracted from the following two-line orbital elements,

1 00047U 60007C   24166.48788841  .00000534  00000-0  13877-3 0  9992
2 00047  66.6640 213.6937 0229125 314.5498  43.7092 14.43587155344972
Epoch (UTC): 14 June 2024 11:42:33
Eccentricity: 0.0229125
inclination: 66.6640°
perigee height: 583 km
apogee height: 910 km
right ascension of ascending node: 213.6937°
argument of perigee: 314.5498°
revolutions per day: 14.43587155
mean anomaly at epoch: 43.7092°
orbit number at epoch: 34497

The dashed part of the orbit path shows where the satellite is in the earth's shadow,  

DLR